Regional Weather Roundup
Issued by NWS

Home | Current Version | Previous Version | Text Only | Print | Product List | Glossary On
Versions: 1 2 3 4 5 6 7 8 9 10 11 12 13 14 15 16 17 18 19 20 21 22 23 24 25 26 27 28 29 30 31 32 33 34 35 36 37 38 39 40 41 42 43 44 45 46 47 48 49 50
000
ASUS43 KTOP 210208
RWRKS

WEATHER ROUNDUP FOR KANSAS
NATIONAL WEATHER SERVICE GOODLAND KS
900 PM CDT SAT SEP 20 2014

NOTE:  "FAIR" INDICATES FEW OR NO CLOUDS BELOW 12,000 FEET WITH NO
SIGNIFICANT WEATHER AND/OR OBSTRUCTIONS TO VISIBILITY.

KSZ001>006-013>018-027>032-041>047-210300-
NORTHWEST KANSAS

CITY           SKY/WX    TMP DP  RH WIND       PRES   REMARKS
GOODLAND       CLEAR     68  51  54 E5        30.17R
HAYS           CLEAR     73  61  64 NE10      30.05R
HILL CITY      CLEAR     71  53  52 N8        30.08R
RUSSELL        CLEAR     72  63  73 NE7       30.03R
$$

KSZ061>065-074>080-084>089-210300-
SOUTHWEST KANSAS

CITY           SKY/WX    TMP DP  RH WIND       PRES   REMARKS
DODGE CITY     CLEAR     79  63  57 N14       30.04R
ELKHART          N/A     77  59  54 SE2         N/A
GARDEN CITY    CLEAR     76  62  62 NE13      30.07R
GREAT BEND     PTCLDY    79  66  65 NE10      30.02R
LIBERAL        PTCLDY    79  57  47 S6        30.05R
PRATT          MOCLDY    73  64  73 N6        30.03R HAZE
$$

KSZ066>073-081>083-090>101-210300-
SOUTHEAST KANSAS

CITY           SKY/WX    TMP DP  RH WIND       PRES   REMARKS
CHANUTE        CLOUDY    79  70  74 S6        29.99R
HUTCHINSON     CLOUDY    73  66  78 SE18G24   30.02R
MEDICINE LODGE   N/A     83  61  47 SE7       29.98R
NEWTON         CLOUDY    72  64  78 S6        30.06R
PARSONS        CLOUDY    77  70  79 E3        29.99R
WICHITA INTL   MOCLDY    81  62  52 N5        30.01R THUNDER
WICHITA JABRA  MOCLDY    79  64  60 N16       30.03R
WICHITA MCCONL PTCLDY    81  64  57 NW8       30.02R HAZE
WINFIELD       CLEAR     77  66  68 S5        29.99R
$$

KSZ007>012-019>026-033>040-048>060-102>105-210300-
NORTHEAST KANSAS

CITY           SKY/WX    TMP DP  RH WIND       PRES   REMARKS
CONCORDIA      CLEAR     71  66  84 N3        30.03R
EMPORIA        CLOUDY    71  66  84 CALM      29.98R
LAWRENCE       PTCLDY    69  66  90 NW7       29.97R FOG
MANHATTAN      CLEAR     71  68  90 VRB3      29.99R
MARYSVILLE     CLEAR     72  68  88 S5        30.01R
OLATHE IND     CLOUDY    74  70  87 W3        29.97R
OLATHE EXE     MOCLDY    76  70  82 CALM      29.97R
SALINA         PTCLDY    77  68  73 E8        30.01R
TOPEKA BILLARD CLEAR     70  69  97 CALM      29.97R
TOPEKA FORBES  CLEAR     69  66  90 NE3       29.97R
$$



USA.gov is the U.S. government's official web portal to all federal, state and local government web resources and services.